| time (UTC) | temp C | wind direction | speed KPH | gust KPH | rain 1hr cm | rain 24hr cm | rain mn cm | humidity % | barometer mb |
| 20260507052551 | 8 | 0 | 0.0 | 0.0 | 0.00 | 0.00 | 0.00 | 88 | 1017.6 |
| 20260507052047 | 8 | 0 | 0.0 | 0.0 | 0.00 | 0.00 | 0.00 | 88 | 1017.5 |
| 20260507051557 | 8 | 0 | 0.0 | 0.0 | 0.00 | 0.00 | 0.00 | 88 | 1017.7 |
| 20260507051050 | 8 | 0 | 0.0 | 0.0 | 0.00 | 0.00 | 0.00 | 88 | 1017.7 |
| 20260507050549 | 8 | 0 | 0.0 | 0.0 | 0.00 | 0.00 | 0.00 | 88 | 1017.7 |
| 20260507050056 | 8 | 0 | 0.0 | 0.0 | 0.00 | 0.00 | 0.00 | 88 | 1017.6 |
| 20260507045548 | 9 | 0 | 0.0 | 0.0 | 0.00 | 0.00 | 0.00 | 88 | 1017.6 |
| 20260507045047 | 9 | 0 | 0.0 | 0.0 | 0.00 | 0.00 | 0.00 | 87 | 1017.6 |
| 20260507044600 | 9 | 0 | 0.0 | 0.0 | 0.00 | 0.00 | 0.00 | 87 | 1017.6 |
| 20260507044048 | 9 | 0 | 0.0 | 0.0 | 0.00 | 0.00 | 0.00 | 87 | 1017.7 |
| 20260507043548 | 9 | 0 | 0.0 | 0.0 | 0.00 | 0.00 | 0.00 | 87 | 1017.6 |
| 20260507043054 | 9 | 0 | 0.0 | 0.0 | 0.00 | 0.00 | 0.00 | 87 | 1017.5 |
| 20260507042548 | 9 | 0 | 0.0 | 0.0 | 0.00 | 0.00 | 0.00 | 87 | 1017.5 |
| 20260507042047 | 10 | 0 | 0.0 | 0.0 | 0.00 | 0.00 | 0.00 | 86 | 1017.5 |
| 20260507041600 | 10 | 0 | 0.0 | 0.0 | 0.00 | 0.00 | 0.00 | 86 | 1017.6 |
| 20260507041048 | 10 | 0 | 0.0 | 0.0 | 0.00 | 0.00 | 0.00 | 86 | 1017.5 |
| 20260507040547 | 10 | 0 | 0.0 | 0.0 | 0.00 | 0.00 | 0.00 | 86 | 1017.5 |
| 20260507040055 | 10 | 0 | 0.0 | 0.0 | 0.00 | 0.00 | 0.00 | 86 | 1017.4 |
| 20260507035547 | 10 | 0 | 0.0 | 0.0 | 0.00 | 0.00 | 0.00 | 86 | 1017.4 |
| 20260507035047 | 10 | 0 | 0.0 | 0.0 | 0.00 | 0.00 | 0.00 | 86 | 1017.3 |
| 20260507034558 | 10 | 0 | 0.0 | 0.0 | 0.00 | 0.00 | 0.00 | 85 | 1017.2 |
| 20260507034050 | 10 | 0 | 0.0 | 0.0 | 0.00 | 0.00 | 0.00 | 84 | 1017.1 |
| 20260507033549 | 10 | 0 | 0.0 | 0.0 | 0.00 | 0.00 | 0.00 | 84 | 1017.1 |
| 20260507033101 | 11 | 0 | 0.0 | 0.0 | 0.00 | 0.00 | 0.00 | 84 | 1017.1 |
| 20260507032549 | 11 | 0 | 0.0 | 0.0 | 0.00 | 0.00 | 0.00 | 84 | 1017.0 |
| 20260507032050 | 11 | 0 | 0.0 | 0.0 | 0.00 | 0.00 | 0.00 | 84 | 1016.9 |
| 20260507031605 | 11 | 0 | 0.0 | 0.0 | 0.00 | 0.00 | 0.00 | 83 | 1016.9 |
| 20260507031050 | 11 | 0 | 0.0 | 0.0 | 0.00 | 0.00 | 0.00 | 83 | 1017.0 |
| 20260507030547 | 11 | 0 | 0.0 | 0.0 | 0.00 | 0.00 | 0.00 | 82 | 1016.9 |
| 20260507030057 | 11 | 0 | 0.0 | 0.0 | 0.00 | 0.00 | 0.00 | 82 | 1016.9 |
| 20260507025549 | 11 | 0 | 0.0 | 0.0 | 0.00 | 0.00 | 0.00 | 82 | 1016.9 |
| 20260507025048 | 12 | 0 | 0.0 | 0.0 | 0.00 | 0.00 | 0.00 | 82 | 1016.8 |
| 20260507024553 | 12 | 0 | 0.0 | 0.0 | 0.00 | 0.00 | 0.00 | 81 | 1016.7 |
| 20260507024049 | 12 | 0 | 0.0 | 0.0 | 0.00 | 0.00 | 0.00 | 80 | 1016.6 |
| 20260507023548 | 12 | 0 | 0.0 | 0.0 | 0.00 | 0.00 | 0.00 | 80 | 1016.5 |
| 20260507023103 | 12 | 0 | 0.0 | 0.0 | 0.00 | 0.00 | 0.00 | 80 | 1016.5 |
| 20260507022548 | 12 | 0 | 0.0 | 0.0 | 0.00 | 0.00 | 0.00 | 80 | 1016.5 |
| 20260507022048 | 12 | 0 | 0.0 | 0.0 | 0.00 | 0.00 | 0.00 | 80 | 1016.4 |
| 20260507021554 | 13 | 0 | 0.0 | 0.0 | 0.00 | 0.00 | 0.00 | 80 | 1016.4 |
| 20260507021050 | 13 | 0 | 0.0 | 0.0 | 0.00 | 0.00 | 0.00 | 80 | 1016.3 |
| 20260507020548 | 13 | 0 | 0.0 | 0.0 | 0.00 | 0.00 | 0.00 | 80 | 1016.3 |
| 20260507020057 | 13 | 0 | 0.0 | 0.0 | 0.00 | 0.00 | 0.00 | 80 | 1016.2 |
| 20260507015548 | 13 | 0 | 0.0 | 0.0 | 0.00 | 0.00 | 0.00 | 80 | 1016.1 |
| 20260507015104 | 13 | 0 | 0.0 | 0.0 | 0.00 | 0.00 | 0.00 | 80 | 1016.0 |
| 20260507014602 | 13 | 0 | 0.0 | 0.0 | 0.00 | 0.00 | 0.00 | 80 | 1016.1 |
| 20260507014048 | 13 | 0 | 0.0 | 0.0 | 0.00 | 0.00 | 0.00 | 80 | 1016.0 |
| 20260507013547 | 13 | 0 | 0.0 | 0.0 | 0.00 | 0.00 | 0.00 | 80 | 1015.9 |
| 20260507013056 | 14 | 0 | 0.0 | 0.0 | 0.00 | 0.00 | 0.00 | 79 | 1015.8 |
| 20260507012548 | 14 | 0 | 0.0 | 0.0 | 0.00 | 0.00 | 0.00 | 79 | 1015.9 |
| 20260507012048 | 14 | 0 | 0.0 | 0.0 | 0.00 | 0.00 | 0.00 | 79 | 1015.8 |
| 20260507011552 | 14 | 0 | 0.0 | 0.0 | 0.00 | 0.00 | 0.00 | 79 | 1015.8 |
| 20260507011048 | 14 | 0 | 0.0 | 0.0 | 0.00 | 0.00 | 0.00 | 80 | 1015.7 |
| 20260507010548 | 15 | 0 | 0.0 | 0.0 | 0.00 | 0.00 | 0.00 | 80 | 1015.6 |
| 20260507010054 | 15 | 0 | 0.0 | 0.0 | 0.00 | 0.00 | 0.00 | 80 | 1015.7 |
| 20260507005548 | 15 | 0 | 0.0 | 0.0 | 0.00 | 0.00 | 0.00 | 80 | 1015.7 |
| 20260507005048 | 15 | 0 | 0.0 | 0.0 | 0.00 | 0.00 | 0.00 | 80 | 1015.8 |
| 20260507004552 | 15 | 0 | 0.0 | 0.0 | 0.00 | 0.00 | 0.00 | 79 | 1015.8 |
| 20260507004048 | 15 | 0 | 0.0 | 0.0 | 0.00 | 0.00 | 0.00 | 79 | 1015.8 |
| 20260507003548 | 15 | 0 | 0.0 | 0.0 | 0.00 | 0.00 | 0.00 | 79 | 1015.9 |
| 20260507003053 | 15 | 0 | 0.0 | 0.0 | 0.00 | 0.00 | 0.00 | 78 | 1015.9 |
| 20260507002548 | 15 | 0 | 0.0 | 0.0 | 0.00 | 0.00 | 0.00 | 78 | 1015.9 |
| 20260507002050 | 15 | 0 | 0.0 | 0.0 | 0.00 | 0.00 | 0.00 | 78 | 1015.9 |
| 20260507001601 | 16 | 0 | 0.0 | 0.0 | 0.00 | 0.00 | 0.00 | 77 | 1015.9 |
| 20260507001050 | 16 | 0 | 0.0 | 0.0 | 0.00 | 0.00 | 0.00 | 75 | 1015.9 |
| 20260507000552 | 16 | 0 | 0.0 | 0.0 | 0.00 | 0.00 | 0.00 | 74 | 1016.0 |
| 20260507000051 | 16 | 0 | 0.0 | 0.0 | 0.00 | 0.00 | 0.00 | 74 | 1015.9 |
| 20260506235547 | 16 | 0 | 0.0 | 0.0 | 0.00 | 0.00 | 0.00 | 74 | 1015.9 |
| 20260506235050 | 16 | 0 | 0.0 | 0.0 | 0.00 | 0.00 | 0.00 | 74 | 1015.8 |
| 20260506234554 | 16 | 0 | 0.0 | 3.2 | 0.00 | 0.00 | 0.00 | 74 | 1015.6 |
| 20260506234047 | 16 | 0 | 0.0 | 3.2 | 0.00 | 0.00 | 0.00 | 72 | 1015.6 |
| 20260506233547 | 16 | 0 | 0.0 | 1.6 | 0.00 | 0.00 | 0.00 | 73 | 1015.4 |
| 20260506233121 | 16 | 0 | 0.0 | 1.6 | 0.00 | 0.00 | 0.00 | 72 | 1015.6 |
| 20260506232549 | 16 | 0 | 0.0 | 1.6 | 0.00 | 0.00 | 0.00 | 69 | 1015.3 |
| 20260506232047 | 16 | 0 | 0.0 | 3.2 | 0.00 | 0.00 | 0.00 | 70 | 1015.4 |
| 20260506231556 | 16 | 0 | 0.0 | 3.2 | 0.00 | 0.00 | 0.00 | 68 | 1015.3 |
| 20260506231051 | 16 | 142 | 0.0 | 3.2 | 0.00 | 0.00 | 0.00 | 67 | 1015.3 |
| 20260506230550 | 16 | 0 | 0.0 | 1.6 | 0.00 | 0.00 | 0.00 | 67 | 1015.0 |
| 20260506230058 | 16 | 0 | 0.0 | 1.6 | 0.00 | 0.00 | 0.00 | 66 | 1015.0 |
| 20260506225550 | 16 | 0 | 0.0 | 3.2 | 0.00 | 0.00 | 0.00 | 68 | 1015.1 |
| 20260506225050 | 16 | 0 | 0.0 | 3.2 | 0.00 | 0.00 | 0.00 | 68 | 1015.1 |
| 20260506224550 | 16 | 214 | 0.0 | 3.2 | 0.00 | 0.00 | 0.00 | 68 | 1015.2 |
| 20260506224052 | 16 | 0 | 0.0 | 3.2 | 0.00 | 0.00 | 0.00 | 67 | 1015.2 |
| 20260506223552 | 16 | 0 | 0.0 | 6.4 | 0.00 | 0.00 | 0.00 | 66 | 1014.8 |
| 20260506223053 | 16 | 0 | 0.0 | 6.4 | 0.00 | 0.00 | 0.00 | 65 | 1015.0 |
| 20260506222549 | 16 | 221 | 1.6 | 6.4 | 0.00 | 0.00 | 0.00 | 65 | 1014.9 |
| 20260506222049 | 17 | 0 | 0.0 | 4.8 | 0.00 | 0.00 | 0.00 | 66 | 1014.7 |
| 20260506221553 | 17 | 0 | 1.6 | 8.0 | 0.00 | 0.00 | 0.00 | 65 | 1014.4 |
| 20260506221048 | 17 | 0 | 0.0 | 8.0 | 0.00 | 0.00 | 0.00 | 66 | 1014.4 |
| 20260506220547 | 17 | 207 | 1.6 | 6.4 | 0.00 | 0.00 | 0.00 | 65 | 1014.3 |
| 20260506220056 | 17 | 221 | 1.6 | 8.0 | 0.00 | 0.00 | 0.00 | 64 | 1014.2 |
| 20260506215549 | 16 | 0 | 1.6 | 8.0 | 0.00 | 0.00 | 0.00 | 68 | 1013.9 |
| 20260506215051 | 16 | 0 | 3.2 | 8.0 | 0.00 | 0.00 | 0.00 | 64 | 1013.9 |
| 20260506214552 | 17 | 0 | 1.6 | 8.0 | 0.00 | 0.00 | 0.00 | 64 | 1014.0 |
| 20260506214049 | 17 | 0 | 0.0 | 8.0 | 0.00 | 0.00 | 0.00 | 63 | 1013.8 |
| 20260506213550 | 17 | 20 | 3.2 | 9.7 | 0.00 | 0.00 | 0.00 | 62 | 1013.8 |
| 20260506213111 | 17 | 0 | 3.2 | 9.7 | 0.00 | 0.00 | 0.00 | 66 | 1014.0 |
| 20260506212549 | 17 | 58 | 1.6 | 8.0 | 0.00 | 0.00 | 0.00 | 63 | 1013.9 |
| 20260506212049 | 17 | 198 | 3.2 | 8.0 | 0.00 | 0.00 | 0.00 | 64 | 1013.9 |
| 20260506211550 | 17 | 0 | 1.6 | 8.0 | 0.00 | 0.00 | 0.00 | 66 | 1014.0 |
| 20260506211050 | 17 | 58 | 0.0 | 8.0 | 0.00 | 0.00 | 0.00 | 69 | 1013.9 |
| 20260506210547 | 16 | 154 | 1.6 | 8.0 | 0.00 | 0.00 | 0.00 | 66 | 1013.9 |
| 20260506210054 | 16 | 44 | 0.0 | 8.0 | 0.00 | 0.00 | 0.00 | 65 | 1014.1 |
| 20260506205548 | 16 | 106 | 1.6 | 8.0 | 0.00 | 0.00 | 0.00 | 64 | 1014.3 |
| 20260506205047 | 16 | 174 | 0.0 | 8.0 | 0.00 | 0.00 | 0.00 | 64 | 1014.3 |
| 20260506204551 | 16 | 0 | 0.0 | 9.7 | 0.00 | 0.00 | 0.00 | 64 | 1014.4 |
| 20260506204046 | 16 | 0 | 1.6 | 9.7 | 0.00 | 0.00 | 0.00 | 65 | 1014.4 |
| 20260506203550 | 16 | 121 | 0.0 | 4.8 | 0.00 | 0.00 | 0.00 | 68 | 1014.5 |
| 20260506203050 | 15 | 0 | 1.6 | 9.7 | 0.00 | 0.00 | 0.00 | 65 | 1014.5 |
| 20260506202549 | 15 | 75 | 1.6 | 9.7 | 0.00 | 0.00 | 0.00 | 65 | 1014.6 |
| 20260506202050 | 15 | 51 | 0.0 | 4.8 | 0.00 | 0.00 | 0.00 | 66 | 1014.8 |
| 20260506201550 | 15 | 42 | 0.0 | 4.8 | 0.00 | 0.00 | 0.00 | 66 | 1015.1 |
| 20260506201049 | 15 | 0 | 1.6 | 8.0 | 0.00 | 0.00 | 0.00 | 64 | 1015.3 |
| 20260506200550 | 15 | 0 | 0.0 | 8.0 | 0.00 | 0.00 | 0.00 | 67 | 1015.2 |
| 20260506200051 | 15 | 65 | 1.6 | 8.0 | 0.00 | 0.00 | 0.00 | 65 | 1015.3 |
| 20260506195549 | 15 | 0 | 3.2 | 8.0 | 0.00 | 0.00 | 0.00 | 64 | 1015.4 |
| 20260506195049 | 15 | 0 | 3.2 | 8.0 | 0.00 | 0.00 | 0.00 | 65 | 1015.4 |
| 20260506194616 | 15 | 0 | 0.0 | 4.8 | 0.00 | 0.00 | 0.00 | 65 | 1015.6 |
| 20260506194054 | 15 | 0 | 0.0 | 4.8 | 0.00 | 0.00 | 0.00 | 65 | 1015.5 |
| 20260506193549 | 15 | 0 | 1.6 | 8.0 | 0.00 | 0.00 | 0.00 | 65 | 1015.5 |
| 20260506193104 | 15 | 47 | 1.6 | 8.0 | 0.00 | 0.00 | 0.00 | 63 | 1016.2 |
| 20260506192547 | 15 | 109 | 0.0 | 8.0 | 0.00 | 0.00 | 0.00 | 63 | 1016.5 |
| 20260506192051 | 15 | 0 | 1.6 | 6.4 | 0.00 | 0.00 | 0.00 | 62 | 1016.5 |
| 20260506191554 | 15 | 0 | 0.0 | 4.8 | 0.00 | 0.00 | 0.00 | 64 | 1016.8 |
| 20260506191046 | 15 | 0 | 0.0 | 4.8 | 0.00 | 0.00 | 0.00 | 62 | 1016.7 |
| 20260506190546 | 15 | 0 | 0.0 | 6.4 | 0.00 | 0.00 | 0.00 | 64 | 1017.0 |
| 20260506190052 | 15 | 360 | 1.6 | 8.0 | 0.00 | 0.00 | 0.00 | 62 | 1016.7 |
| 20260506185551 | 15 | 278 | 0.0 | 8.0 | 0.00 | 0.00 | 0.00 | 63 | 1016.4 |
| 20260506185046 | 15 | 115 | 0.0 | 8.0 | 0.00 | 0.00 | 0.00 | 61 | 1016.8 |
| 20260506184554 | 15 | 104 | 0.0 | 6.4 | 0.00 | 0.00 | 0.00 | 63 | 1016.7 |
| 20260506184051 | 15 | 347 | 0.0 | 8.0 | 0.00 | 0.00 | 0.00 | 63 | 1016.5 |
| 20260506183549 | 15 | 277 | 1.6 | 8.0 | 0.00 | 0.00 | 0.00 | 64 | 1016.6 |
| 20260506183057 | 15 | 0 | 1.6 | 8.0 | 0.00 | 0.00 | 0.00 | 63 | 1016.6 |
| 20260506182548 | 15 | 35 | 0.0 | 8.0 | 0.00 | 0.00 | 0.00 | 63 | 1016.4 |
| 20260506182048 | 15 | 0 | 1.6 | 8.0 | 0.00 | 0.00 | 0.00 | 64 | 1016.2 |
| 20260506181553 | 15 | 33 | 0.0 | 8.0 | 0.00 | 0.00 | 0.00 | 66 | 1016.1 |
| 20260506181049 | 14 | 293 | 1.6 | 8.0 | 0.00 | 0.00 | 0.00 | 64 | 1016.2 |
| 20260506180551 | 14 | 0 | 0.0 | 6.4 | 0.00 | 0.00 | 0.00 | 65 | 1016.4 |
| 20260506175550 | 14 | 0 | 1.6 | 6.4 | 0.00 | 0.00 | 0.00 | 66 | 1016.5 |
| 20260506175046 | 14 | 0 | 1.6 | 4.8 | 0.00 | 0.00 | 0.00 | 67 | 1016.3 |
| 20260506174555 | 14 | 0 | 0.0 | 4.8 | 0.00 | 0.00 | 0.00 | 67 | 1016.7 |
| 20260506174048 | 14 | 344 | 0.0 | 4.8 | 0.00 | 0.00 | 0.00 | 68 | 1016.8 |
| 20260506173547 | 13 | 97 | 0.0 | 4.8 | 0.00 | 0.00 | 0.00 | 67 | 1016.7 |
| 20260506173057 | 13 | 0 | 0.0 | 3.2 | 0.00 | 0.00 | 0.00 | 69 | 1016.5 |
| 20260506172551 | 13 | 0 | 0.0 | 6.4 | 0.00 | 0.00 | 0.00 | 68 | 1016.8 |
| 20260506172050 | 13 | 13 | 0.0 | 6.4 | 0.00 | 0.00 | 0.00 | 67 | 1016.6 |
| 20260506171553 | 13 | 0 | 0.0 | 4.8 | 0.00 | 0.00 | 0.00 | 67 | 1016.8 |
| 20260506171054 | 13 | 0 | 0.0 | 4.8 | 0.00 | 0.00 | 0.00 | 66 | 1017.2 |
| 20260506170549 | 13 | 0 | 0.0 | 4.8 | 0.00 | 0.00 | 0.00 | 66 | 1017.5 |
| 20260506170105 | 13 | 0 | 0.0 | 8.0 | 0.00 | 0.00 | 0.00 | 68 | 1017.5 |
| 20260506165547 | 13 | 0 | 1.6 | 8.0 | 0.00 | 0.00 | 0.00 | 68 | 1017.5 |
| 20260506165047 | 13 | 280 | 1.6 | 6.4 | 0.00 | 0.00 | 0.00 | 66 | 1017.4 |
| 20260506164551 | 13 | 0 | 1.6 | 6.4 | 0.00 | 0.00 | 0.00 | 67 | 1017.4 |
| 20260506164051 | 13 | 0 | 0.0 | 8.0 | 0.00 | 0.00 | 0.00 | 70 | 1017.0 |
| 20260506163547 | 13 | 0 | 1.6 | 9.7 | 0.00 | 0.00 | 0.00 | 68 | 1016.5 |
| 20260506163111 | 13 | 72 | 1.6 | 9.7 | 0.00 | 0.00 | 0.00 | 68 | 1016.6 |
| 20260506162548 | 13 | 0 | 1.6 | 8.0 | 0.00 | 0.00 | 0.00 | 67 | 1016.7 |
| 20260506162051 | 13 | 341 | 0.0 | 9.7 | 0.00 | 0.00 | 0.00 | 68 | 1016.8 |
| 20260506161606 | 13 | 41 | 3.2 | 9.7 | 0.00 | 0.00 | 0.00 | 67 | 1017.0 |
| 20260506161048 | 13 | 360 | 1.6 | 14.5 | 0.00 | 0.00 | 0.00 | 68 | 1017.0 |
| 20260506160548 | 13 | 360 | 1.6 | 14.5 | 0.00 | 0.00 | 0.00 | 68 | 1016.8 |
| 20260506160053 | 13 | 349 | 1.6 | 14.5 | 0.00 | 0.00 | 0.00 | 68 | 1016.7 |
| 20260506155552 | 13 | 360 | 1.6 | 11.3 | 0.00 | 0.00 | 0.00 | 71 | 1016.8 |
| 20260506155049 | 12 | 360 | 4.8 | 11.3 | 0.00 | 0.00 | 0.00 | 68 | 1016.6 |
| 20260506154609 | 12 | 0 | 1.6 | 9.7 | 0.00 | 0.00 | 0.00 | 69 | 1016.5 |
| 20260506154049 | 12 | 0 | 1.6 | 12.9 | 0.00 | 0.00 | 0.00 | 69 | 1016.3 |
| 20260506153547 | 12 | 25 | 1.6 | 12.9 | 0.00 | 0.00 | 0.00 | 69 | 1016.3 |
| 20260506153102 | 12 | 90 | 3.2 | 11.3 | 0.00 | 0.00 | 0.00 | 70 | 1016.1 |
| 20260506152548 | 12 | 360 | 0.0 | 4.8 | 0.00 | 0.00 | 0.00 | 71 | 1016.3 |
| 20260506152049 | 12 | 0 | 0.0 | 11.3 | 0.00 | 0.00 | 0.00 | 71 | 1016.4 |
| 20260506151558 | 12 | 131 | 1.6 | 11.3 | 0.00 | 0.00 | 0.00 | 71 | 1016.6 |
| 20260506151047 | 12 | 0 | 1.6 | 9.7 | 0.00 | 0.00 | 0.00 | 70 | 1016.7 |
| 20260506150549 | 12 | 0 | 1.6 | 9.7 | 0.00 | 0.00 | 0.00 | 71 | 1017.0 |
| 20260506150051 | 12 | 17 | 3.2 | 9.7 | 0.00 | 0.00 | 0.00 | 70 | 1016.7 |
| 20260506145549 | 12 | 124 | 0.0 | 8.0 | 0.00 | 0.00 | 0.00 | 72 | 1016.7 |
| 20260506145049 | 12 | 139 | 0.0 | 6.4 | 0.00 | 0.00 | 0.00 | 71 | 1016.6 |
| 20260506144551 | 12 | 0 | 1.6 | 12.9 | 0.00 | 0.00 | 0.00 | 70 | 1016.6 |
| 20260506144049 | 12 | 49 | 1.6 | 12.9 | 0.00 | 0.00 | 0.00 | 70 | 1016.5 |
| 20260506143549 | 12 | 0 | 1.6 | 8.0 | 0.00 | 0.00 | 0.00 | 71 | 1016.1 |
| 20260506143103 | 11 | 0 | 1.6 | 6.4 | 0.00 | 0.00 | 0.00 | 73 | 1015.9 |
| 20260506142548 | 11 | 26 | 0.0 | 6.4 | 0.00 | 0.00 | 0.00 | 72 | 1015.8 |
| 20260506142048 | 11 | 88 | 1.6 | 6.4 | 0.00 | 0.00 | 0.00 | 73 | 1015.9 |
| 20260506141553 | 11 | 0 | 0.0 | 4.8 | 0.00 | 0.00 | 0.00 | 73 | 1016.3 |
| 20260506141053 | 11 | 0 | 0.0 | 9.7 | 0.00 | 0.00 | 0.00 | 73 | 1016.3 |
| 20260506140549 | 11 | 70 | 3.2 | 9.7 | 0.00 | 0.00 | 0.00 | 72 | 1016.5 |
| 20260506140057 | 11 | 0 | 0.0 | 4.8 | 0.00 | 0.00 | 0.00 | 74 | 1016.5 |
| 20260506135549 | 11 | 0 | 0.0 | 6.4 | 0.00 | 0.03 | 0.00 | 74 | 1016.3 |
| 20260506135048 | 11 | 0 | 0.0 | 8.0 | 0.00 | 0.03 | 0.00 | 75 | 1016.2 |
| 20260506134550 | 11 | 0 | 0.0 | 8.0 | 0.00 | 0.03 | 0.00 | 74 | 1016.0 |
| 20260506134048 | 11 | 56 | 0.0 | 3.2 | 0.00 | 0.03 | 0.00 | 75 | 1016.1 |
| 20260506133547 | 11 | 0 | 0.0 | 4.8 | 0.00 | 0.03 | 0.00 | 75 | 1016.1 |
| 20260506133053 | 11 | 0 | 0.0 | 4.8 | 0.00 | 0.03 | 0.00 | 75 | 1016.0 |
| 20260506132548 | 11 | 0 | 1.6 | 8.0 | 0.00 | 0.03 | 0.00 | 74 | 1015.7 |
| 20260506132048 | 11 | 0 | 1.6 | 8.0 | 0.00 | 0.03 | 0.00 | 75 | 1016.0 |
| 20260506131550 | 11 | 0 | 0.0 | 4.8 | 0.00 | 0.03 | 0.00 | 75 | 1016.0 |
| 20260506131048 | 11 | 0 | 0.0 | 4.8 | 0.00 | 0.03 | 0.00 | 75 | 1016.0 |
| 20260506130549 | 11 | 0 | 0.0 | 4.8 | 0.00 | 0.03 | 0.00 | 75 | 1015.6 |
| 20260506130052 | 11 | 0 | 0.0 | 9.7 | 0.00 | 0.03 | 0.00 | 74 | 1015.8 |
| 20260506125551 | 11 | 90 | 1.6 | 9.7 | 0.00 | 0.15 | 0.00 | 75 | 1015.8 |
| 20260506125052 | 11 | 0 | 0.0 | 6.4 | 0.00 | 0.15 | 0.00 | 77 | 1015.8 |
| 20260506124552 | 11 | 0 | 0.0 | 6.4 | 0.00 | 0.15 | 0.00 | 76 | 1015.6 |
| 20260506124048 | 10 | 52 | 0.0 | 6.4 | 0.00 | 0.15 | 0.00 | 75 | 1015.4 |
| 20260506123550 | 10 | 0 | 0.0 | 6.4 | 0.00 | 0.15 | 0.00 | 75 | 1015.7 |
| 20260506123054 | 10 | 360 | 1.6 | 6.4 | 0.00 | 0.15 | 0.00 | 75 | 1015.4 |
| 20260506122549 | 10 | 0 | 0.0 | 4.8 | 0.00 | 0.15 | 0.00 | 76 | 1015.1 |
| 20260506122048 | 10 | 360 | 0.0 | 4.8 | 0.00 | 0.15 | 0.00 | 77 | 1015.0 |
| 20260506121549 | 10 | 0 | 1.6 | 4.8 | 0.00 | 0.15 | 0.00 | 76 | 1015.2 |
| 20260506121048 | 10 | 0 | 0.0 | 4.8 | 0.00 | 0.15 | 0.00 | 77 | 1015.3 |
| 20260506120548 | 10 | 345 | 0.0 | 4.8 | 0.00 | 0.15 | 0.00 | 78 | 1015.6 |
| 20260506120058 | 10 | 0 | 0.0 | 4.8 | 0.00 | 0.15 | 0.00 | 79 | 1015.4 |
| 20260506115548 | 10 | 0 | 0.0 | 3.2 | 0.00 | 0.15 | 0.00 | 79 | 1015.0 |
| 20260506115047 | 10 | 0 | 0.0 | 3.2 | 0.00 | 0.15 | 0.00 | 79 | 1014.4 |
| 20260506114559 | 10 | 0 | 0.0 | 3.2 | 0.00 | 0.15 | 0.00 | 79 | 1014.1 |
| 20260506114051 | 10 | 0 | 0.0 | 3.2 | 0.00 | 0.15 | 0.00 | 80 | 1014.0 |
| 20260506113549 | 10 | 0 | 0.0 | 3.2 | 0.00 | 0.15 | 0.00 | 80 | 1014.0 |
| 20260506113054 | 10 | 0 | 0.0 | 4.8 | 0.00 | 0.15 | 0.00 | 79 | 1013.9 |
| 20260506112548 | 10 | 0 | 0.0 | 4.8 | 0.00 | 0.15 | 0.00 | 79 | 1013.6 |
| 20260506112050 | 10 | 297 | 0.0 | 4.8 | 0.00 | 0.15 | 0.00 | 79 | 1013.5 |
| 20260506111554 | 10 | 0 | 0.0 | 4.8 | 0.00 | 0.15 | 0.00 | 79 | 1013.6 |
| 20260506111047 | 10 | 33 | 0.0 | 6.4 | 0.00 | 0.15 | 0.00 | 79 | 1013.3 |
| 20260506110548 | 10 | 315 | 0.0 | 6.4 | 0.00 | 0.15 | 0.00 | 79 | 1013.3 |
| 20260506110059 | 10 | 0 | 1.6 | 6.4 | 0.00 | 0.15 | 0.00 | 79 | 1013.1 |
| 20260506105549 | 10 | 0 | 0.0 | 8.0 | 0.00 | 0.15 | 0.00 | 80 | 1013.0 |
| 20260506105048 | 10 | 0 | 0.0 | 14.5 | 0.00 | 0.15 | 0.00 | 80 | 1012.9 |
| 20260506104550 | 10 | 292 | 0.0 | 14.5 | 0.00 | 0.15 | 0.00 | 80 | 1013.0 |
| 20260506104048 | 10 | 55 | 0.0 | 11.3 | 0.00 | 0.15 | 0.00 | 81 | 1012.9 |
| 20260506103552 | 10 | 360 | 1.6 | 9.7 | 0.00 | 0.15 | 0.00 | 82 | 1012.9 |
| 20260506103049 | 10 | 136 | 0.0 | 3.2 | 0.00 | 0.15 | 0.00 | 83 | 1012.9 |
| 20260506102548 | 10 | 0 | 0.0 | 0.0 | 0.00 | 0.15 | 0.00 | 83 | 1013.0 |
| 20260506102047 | 11 | 0 | 0.0 | 0.0 | 0.00 | 0.15 | 0.00 | 83 | 1013.0 |
| 20260506101602 | 11 | 0 | 0.0 | 0.0 | 0.00 | 0.15 | 0.00 | 82 | 1013.0 |
| 20260506101053 | 11 | 0 | 0.0 | 0.0 | 0.00 | 0.15 | 0.00 | 82 | 1012.8 |
| 20260506100547 | 11 | 0 | 0.0 | 4.8 | 0.00 | 0.15 | 0.00 | 82 | 1012.7 |
| 20260506100053 | 11 | 0 | 0.0 | 4.8 | 0.00 | 0.15 | 0.00 | 82 | 1012.4 |
| 20260506095549 | 11 | 0 | 0.0 | 6.4 | 0.00 | 0.15 | 0.00 | 82 | 1012.2 |
| 20260506095048 | 11 | 0 | 0.0 | 6.4 | 0.00 | 0.15 | 0.00 | 82 | 1012.1 |
| 20260506094621 | 11 | 115 | 0.0 | 6.4 | 0.00 | 0.15 | 0.00 | 82 | 1011.8 |
| 20260506094047 | 11 | 0 | 0.0 | 4.8 | 0.00 | 0.15 | 0.00 | 82 | 1011.9 |
| 20260506093548 | 11 | 253 | 0.0 | 4.8 | 0.00 | 0.15 | 0.00 | 82 | 1011.9 |
| 20260506093057 | 11 | 0 | 0.0 | 9.7 | 0.00 | 0.15 | 0.00 | 82 | 1011.6 |
| 20260506092549 | 11 | 0 | 0.0 | 9.7 | 0.00 | 0.15 | 0.00 | 82 | 1011.6 |
| 20260506092048 | 11 | 341 | 0.0 | 11.3 | 0.00 | 0.15 | 0.00 | 82 | 1011.4 |
| 20260506091553 | 11 | 264 | 0.0 | 11.3 | 0.00 | 0.15 | 0.00 | 82 | 1011.3 |
| 20260506091048 | 11 | 0 | 1.6 | 11.3 | 0.00 | 0.15 | 0.00 | 82 | 1011.3 |
| 20260506090547 | 11 | 326 | 0.0 | 6.4 | 0.00 | 0.15 | 0.00 | 83 | 1011.4 |
| 20260506090052 | 11 | 0 | 0.0 | 6.4 | 0.00 | 0.15 | 0.00 | 83 | 1011.3 |
| 20260506085548 | 11 | 343 | 0.0 | 3.2 | 0.00 | 0.20 | 0.00 | 83 | 1011.4 |
| 20260506085049 | 11 | 0 | 0.0 | 1.6 | 0.00 | 0.20 | 0.00 | 83 | 1011.2 |
| 20260506084556 | 11 | 0 | 0.0 | 3.2 | 0.00 | 0.20 | 0.00 | 82 | 1011.2 |
| 20260506084053 | 11 | 0 | 0.0 | 3.2 | 0.00 | 0.20 | 0.00 | 82 | 1011.3 |
| 20260506083550 | 11 | 0 | 0.0 | 3.2 | 0.00 | 0.20 | 0.00 | 83 | 1011.4 |
| 20260506083052 | 11 | 0 | 0.0 | 3.2 | 0.00 | 0.20 | 0.00 | 83 | 1011.3 |
| 20260506082553 | 11 | 0 | 0.0 | 8.0 | 0.00 | 0.20 | 0.00 | 82 | 1011.1 |
| 20260506082050 | 11 | 0 | 0.0 | 9.7 | 0.00 | 0.20 | 0.00 | 82 | 1010.7 |
| 20260506081555 | 11 | 91 | 1.6 | 9.7 | 0.00 | 0.20 | 0.00 | 82 | 1010.6 |
| 20260506081047 | 11 | 252 | 0.0 | 6.4 | 0.00 | 0.20 | 0.00 | 83 | 1011.2 |
| 20260506080550 | 11 | 0 | 0.0 | 4.8 | 0.00 | 0.20 | 0.00 | 83 | 1011.6 |
| 20260506073053 | 11 | 0 | 1.6 | 11.3 | 0.00 | 0.20 | 0.00 | 82 | 1010.6 |
| 20260506072550 | 11 | 334 | 3.2 | 9.7 | 0.00 | 0.20 | 0.00 | 82 | 1010.3 |
| 20260506072046 | 11 | 93 | 0.0 | 8.0 | 0.00 | 0.20 | 0.00 | 83 | 1010.3 |
| 20260506071556 | 11 | 360 | 0.0 | 8.0 | 0.00 | 0.20 | 0.00 | 83 | 1010.5 |
| 20260506071048 | 11 | 0 | 0.0 | 8.0 | 0.00 | 0.20 | 0.00 | 83 | 1010.4 |
| 20260506070546 | 11 | 79 | 3.2 | 8.0 | 0.00 | 0.20 | 0.00 | 83 | 1010.4 |
| 20260506062047 | 12 | 0 | 0.0 | 8.0 | 0.00 | 0.20 | 0.00 | 82 | 1010.3 |
| 20260506061549 | 12 | 0 | 0.0 | 4.8 | 0.00 | 0.20 | 0.00 | 82 | 1010.2 |
| 20260506061048 | 12 | 0 | 0.0 | 4.8 | 0.00 | 0.20 | 0.00 | 82 | 1010.1 |
| 20260506060546 | 12 | 66 | 0.0 | 4.8 | 0.00 | 0.20 | 0.00 | 83 | 1010.2 |